Regional Weather Roundup
Issued by NWS Upton, NY

Current Version | Previous Version | Text Only | Print | Product List | Glossary Off
Versions: 1 2 3 4 5 6 7 8 9 10 11 12 13 14 15 16 17 18 19 20 21 22 23 24 25 26 27 28 29
000 ASUS41 KOKX 231808 RWROKX REGIONAL WEATHER ROUNDUP NATIONAL WEATHER SERVICE NEW YORK NY 100 PM EST THU NOV 23 2017 NOTE: "FAIR" INDICATES FEW OR NO CLOUDS BELOW 12,000 FEET WITH NO SIGNIFICANT WEATHER AND/OR OBSTRUCTIONS TO VISIBILITY. NYZ071-072-176-178-NJZ106-104-231900- NEW YORK CITY METRO AREA CITY SKY/WX TMP DP RH WIND PRES REMARKS Central Park SUNNY 40 17 39 NW7 30.07F Bronx Bot Gard N/A 41 18 38 W3 30.07R Bronx Lehman C N/A 39 32 75 NW3 N/A LaGuardia APRT MOSUNNY 42 19 39 NW7 30.05F Queens College NOT AVBL Kennedy INTL MOSUNNY 42 20 41 NW9 30.07F Breezy Point NOT AVBL Brooklyn Coll N/A 39 32 75 NW5 N/A Staten Island N/A 39 32 75 W6 N/A WCI 35 Newark/Liberty MOSUNNY 43 18 36 SW5 30.05F Teterboro SUNNY 43 19 38 MISG 30.05F $$ NYZ177-179-078>081-231900- LONG ISLAND NEW YORK CITY SKY/WX TMP DP RH WIND PRES REMARKS Jones Beach NOT AVBL Wantagh N/A 39 32 75 W5 N/A Matinecock PT NOT AVBL Farmingdale SUNNY 41 21 44 N7 30.05F MacArthur/ISP MOSUNNY 41 21 44 N10 30.04F Shirley SUNNY 42 24 49 NW6 30.04F Mt Sinai Harb NOT AVBL Westhampton SUNNY 40 20 44 W7 30.05F East Hampton FAIR 39 25 57 NW8 30.03S WCI 34 Southold N/A 39 32 75 NW6 N/A WCI 35 Montauk N/A 41 26 55 W9 30.04F $$ NYZ052-065-067-231900- HUDSON VALLEY CITY SKY/WX TMP DP RH WIND PRES REMARKS White Plains SUNNY 39 18 42 W9 30.02F WCI 33 Larchmont Harb NOT AVBL Croton On Huds NOT AVBL Somers N/A 39 32 75 NW6 N/A WCI 35 Brewster N/A 37 32 81 NW7 N/A WCI 32 Newburgh SUNNY 39 21 48 SW8 30.04F WCI 34 Montgomery SUNNY 43 19 38 NW7 30.02F Suffern N/A 39 32 75 N8 N/A WCI 34 Poughkeepsie SUNNY 40 17 39 NW5 30.04F Albany PTSUNNY 35 19 52 W8 30.05F WCI 29 $$ NJZ001-105-106-008-010-013-015-019>022-104-231900- NEW JERSEY CITY SKY/WX TMP DP RH WIND PRES REMARKS Newark/Liberty MOSUNNY 43 18 36 SW5 30.05F Teterboro SUNNY 43 19 38 MISG 30.05F Caldwell SUNNY 41 18 39 CALM 30.05F Somerville SUNNY 42 20 41 VRB6 30.05F Linden FAIR 42 18 38 CALM 30.06F Perth Amboy NOT AVBL Sussex SUNNY 41 20 43 VRB6 30.04F Andover N/A 41 21 44 VRB5 30.04F Trenton SUNNY 39 20 46 W5 30.07F Millville SUNNY 40 23 50 W6 30.08F Atlantic City CLOUDY 41 22 46 W6 30.07F Wrightstown SUNNY 40 20 46 W8 30.05F WCI 34 Toms River SUNNY 41 21 44 W10 30.07F Belmar SUNNY 39 20 46 W6 30.07F WCI 35 $$ PAZ047>061-062-071-231900- EASTERN PENNSYLVANIA CITY SKY/WX TMP DP RH WIND PRES REMARKS Philadelphia MOSUNNY 41 18 39 VRB5 30.09F Allentown SUNNY 40 19 43 VRB6 30.06F Scranton CLOUDY 38 20 48 N6 30.05F WCI 33 $$ CTZ002-004>006-009-010-012-RIZ004-006-007-MAZ004-011-015-231900- SOUTHERN NEW ENGLAND IN CT CITY SKY/WX TMP DP RH WIND PRES REMARKS Bradley INTL MOSUNNY 42 17 36 W8 30.01F Hartford SUNNY 42 20 41 VRB3 30.02F Danbury SUNNY 40 17 39 W8 30.04F WCI 34 Wtrbury/Oxford SUNNY 37 16 42 NW7 30.01F WCI 32 Norwalk Harbor NOT AVBL Bridgeport SUNNY 43 17 35 NW7 30.04F Meriden SUNNY 41 19 41 VRB5 30.02F New Haven SUNNY 42 18 37 VRB7 30.03F Chester FAIR 41 18 38 CALM 30.01F Groton SUNNY 42 20 41 NW5 30.01F Wilimantic SUNNY 41 21 44 SW7 30.01F IN RI CITY SKY/WX TMP DP RH WIND PRES REMARKS Providence MOSUNNY 43 21 41 NW9 30.00F Block Island SUNNY 40 26 57 NW6 30.02F Westerly SUNNY 44 22 41 VRB5 30.02F IN MA CITY SKY/WX TMP DP RH WIND PRES REMARKS Boston MOSUNNY 41 18 39 NW7 29.99F Worcester SUNNY 36 13 38 W12 29.95F WCI 28 Westfield SUNNY 41 17 38 W8 30.00F Provincetown SUNNY 39 21 48 NW9 30.00F WCI 33 Nantucket CLOUDY 40 27 59 SW12 30.01S WCI 33 $$ ANZ330-335-338-340-345-350-353-355-231900- COASTAL MARINE OBSERVATIONS STATION/POSITION TIME SKY/WX TEMP WIND PRES VSBY WAVE AIR SEA DIR/SP/G HT/PER (UTC) (F) (DEG/KT/KT) (MB) (MI) (FT/S) NY HARB ENTRANCE 1650 37 55 300/ 10/ 14 1017.9 4/11 20 S FIRE ISLAND 1650 38 56 320/ 8/ 10 1018.2 4/11 GREAT SOUTH BAY 1730 38 45 270/ 4/ 10 N/A HUDSON CANYON 1650 42 58 320/ 6/ 10 1017.3 5/10 KINGS POINT 1730 40 50 30/ 2/ 3 1018.8 EXECUTION ROCKS 1730 42 320/ 6/ 10 N/A WESTERN LI SOUND 1649 39 310/ 6/ 12 N/A 0 CENTRAL LI SOUND 1715 38 310/ 6/ 10 N/A 1 ROBBINS REEF 1748 39 260/ 6/ 8 1018.5 $$ >>>>>>>>>>>>>>>>>>>>>>>>>>>> KEY <<<<<<<<<<<<<<<<<<<<<<<<<<< > < > SKY/WX - Sky Condition/Present Weather < > TMP - Temperature in Fahrenheit < > DP - Dew Point in Fahrenheit < > RH - Relative Humidity in Percent < > WIND - Direction (from) and Speed in MPH < > PRES - Mean Sea Level Pressure (inches of Hg) < > WCI - Wind Chill Index < > VSB - VISIBILITY IN MILES < > HX - HEAT INDEX < > TC - TEMPERATURE IN CELSIUS < > VRB - VARIABLE WIND DIRECTION < > < >>>>>>>>>>>>>>>>>>>>>>>>>>>> KEY <<<<<<<<<<<<<<<<<<<<<<<<<<<

USA.gov is the U.S. government's official web portal to all federal, state and local government web resources and services.